Tracking 28341 objects as of 5-Dec-2023
HD Live streaming from Space Station
objects crossing your sky now

KALAMSAT-V2/PSLV

Track KALAMSAT-V2/PSLV now!
10-day predictions
KALAMSAT-V2/PSLV is classified as:


NORAD ID: 43948
Int'l Code: 2019-006B
Perigee: 261.9 km
Apogee: 271.2 km
Inclination: 98.8 °
Period: 89.7 minutes
Semi major axis: 6637 km
RCS: Unknown
Launch date: January 24, 2019
Source: India (IND)
Launch site: SRIHARIKOTA (SRI)

Uplink (MHz):
Downlink (MHz): 436.500
Beacon (MHz):
Mode:
Call sign:
Status: Unknown

Your satellite tracking list
Your tracking list is empty




NASA's NSSDC Master Catalog

Two Line Element Set (TLE):
1 43948U 19006B   23339.40486878  .00462388  10313-3  66290-3 0  9997
2 43948  98.7769 296.4532 0006977 112.0380 248.1639 16.05427679274486
Source of the keplerian elements: AFSPC